CZ-6A DEB, 60625

Orbit data source: Space-Track

CZ-6A DEB, 60625 is space debris in LEO originally from a launch on Tue, 06 Aug 2024 UTC launched from the Taiyaun Space Center, China (TSC). Debris objects in space refer to the collection of defunct objects orbiting the Earth. Examples of debris include non-operational satellites, rocket bodies, and fragments generated from explosions, collisions, or faulty payload assembly.

Loading next visibility...
CZ-6A DEB details
Identifier
60625, 2024-140AA
Orbit
LEO
Last TLE update1 day ago
Origin
Flag of CNCNSA (CN / PRC)
ManufacturerSAST
MissionSpacecraft
Bus & MotorUnknown
MassUnknown
Launch date (UTC)
2024-08-06 (6 months ago)
Launch vehicleUnknown
Launch site
Taiyaun Space Center, China (TSC)
Object type
Payload
Rocket body
Debris
Shape & HBRUnknown
Radar Cross SectionSmall (<0.1 m²)

Expand to show TLE details & history

TLE from 1 day ago
0 CZ-6A DEB
1 60625U 24140AA  25035.28527097  .00011019  00000-0  33001-2 0  9996
2 60625  89.0139 330.2634 0066974 221.6523 137.9568 14.41471412 26001
Epoch: 2025-02-04T06:50Z
Definitive object data (Epoch: 2025-02-04T06:50:47.411Z)
Latitude-0.00008°
Longitude92.8731°
Altitude792.347 km
Speed7.439 km/s
True Right ascension22h 01m 03s
True Declination0° 00' 00"
Sunlit
Object was in daylight at TLE epoch
Visualization TLE readout
Latitude-6.18708°
Longitude-87.13729°
Altitude717.171 km
Speed7.518 km/s
Apparent Right ascension11h 50m 52s
Apparent Declination-61° 44' 24"
Sunlit
Object is in full shadow
Visualization observer readout
Local Sidereal Time09:04:24
Azimuth160.795° S
Elevation-17.079°
Doppler factor1
Orbital elements
Apogee altitude798.305 km
Perigee altitude702.818 km
Semi-major axis7,128.698 km
Eccentricity0.0066974
Inclination89.0139°
RAAN330.2634°
Arg. of periapsis221.6523°
True anomaly138.46758°
Mean anomaly137.9568°
Eccentric anomaly138.21251°
Mean motion3.60602 °/min
BSTAR0.0033001
Orbital period99.83 mins
Loading maneuver chart data...
Loading historical data...
Loading historical data...
Loading historical data...
Loading historical data...
Loading historical data...
Loading historical data...
Loading historical data...

CZ-6A DEB Visibility forecast

Observer location: undefined°, undefined

Span
Click to sort rows by Start time (UTC) header in descending order
Start Az.
Max El. time (UTC)
Max El. Az.
Max El.
End time (UTC)
End Az.
8 mins2025-02-05 08:25:08.067Z343.351° N2025-02-05 08:29:08.067Z282.031° WNW32.848°2025-02-05 08:33:08.067Z212.721° SW
9 mins2025-02-05 19:37:08.067Z161.537° S2025-02-05 19:41:08.067Z89.542° E41.194°2025-02-05 19:46:08.067Z7.005° NNE
4 mins2025-02-05 21:20:08.067Z264.233° W2025-02-05 21:21:08.067Z276.914° WNW14.835°2025-02-05 21:24:08.067Z313.281° NW
|